Regional Weather Roundup
Issued by NWS Kansas City/Pleasant Hill, MO

Home | Current Version | Previous Version | Graphics & Text | Print | Product List | Glossary Off
Versions: 1 2 3 4 5 6 7 8 9 10 11 12 13 14 15 16 17 18 19 20 21 22 23 24 25 26 27 28 29 30 31 32 33 34 35 36 37 38 39 40 41 42 43 44 45 46 47 48 49 50

000
ASUS43 KEAX 210911
RWREAX

WEATHER ROUNDUP FOR EASTERN KANSAS AND NORTHWEST MISSOURI
NATIONAL WEATHER SERVICE KANSAS CITY/PLEASANT HILL MO
400 AM CDT MON APR 21 2014

KSZ040-057-103>105-MOZ028-029-037-043-211000-
...KANSAS CITY METROPOLITAN AREA...

CITY           SKY/WX    TMP DP  RH WIND       PRES   REMARKS
K.C. INTL      DRIZZLE   62  55  77 S6        29.98F
K.C. DOWNTOWN  CLOUDY    67  54  63 SW6       29.98S
LEES SUMMIT    CLOUDY    65  54  67 SW8       29.99F
OLATHE - IXD   CLOUDY    63  56  78 S10       30.00S
OLATHE - OJC   CLOUDY    63  54  72 S7        29.99S
LAWRENCE       CLOUDY    62  55  77 CALM      29.98F

$$

MOZ001>008-011>017-020>025-030>033-038>040-044>046-053-054-211000-
...NORTHERN AND CENTRAL MISSOURI...

CITY           SKY/WX    TMP DP  RH WIND       PRES   REMARKS
ST. JOSEPH     CLOUDY    62  57  83 S6        29.97F
MOSBY          DRIZZLE   63  55  77 CALM      29.99S
WARRENSBURG    CLOUDY   N/A N/A N/A S6        30.01R
WHITEMAN AFB   CLOUDY    58  52  79 S6        30.01R
CLINTON        CLOUDY    59  57  94 SW6       30.03R
SEDALIA        CLOUDY    62  53  72 S6        30.02R
WARSAW         NOT AVBL
MARSHALL         N/A     63  55  77 S5        30.00F
CHILLICOTHE      N/A     62  56  80 S3        29.99S
MOBERLY        MOCLDY    61  50  67 S5        30.00F
KIRKSVILLE     CLOUDY    62  52  69 SW3       29.99F

$$

MOZ041-047>049-056>058-063>065-088>090-097-211000-
...EASTERN AND SOUTHERN MISSOURI...

CITY           SKY/WX    TMP DP  RH WIND       PRES   REMARKS
ST. LOUIS INTL CLOUDY    63  45  51 NW5       30.03R
SPIRIT OF STL  CLOUDY    58  48  69 CALM      30.01R
COLUMBIA       CLOUDY    61  51  70 S6        30.01S
JEFFERSON CITY CLOUDY    59  52  77 SE3       30.01S
MEXICO         CLOUDY    55  52  88 S3        30.01S
HANNIBAL       CLOUDY    63  46  55 S5        30.00F
ROLLA          MOCLDY    61  48  62 S10       30.02R
LEBANON        CLOUDY    61  50  67 S3        30.04S
OSAGE BEACH    CLOUDY    59  48  67 CALM      30.04S
SPRINGFIELD    LGT RAIN  63  54  72 SW9       30.04R
BRANSON        LGT RAIN  61  55  82 SW6       30.07R
JOPLIN         LGT RAIN  61  59  93 CALM      30.04S FOG
WEST PLAINS    CLOUDY    65  50  58 S7        30.07R

$$

IAZ060-094-KSZ022-034>040-054-083-096-NEZ052-066-093-211000-
...KANSAS...SOUTHEAST NEBRASKA AND IOWA...

CITY           SKY/WX    TMP DP  RH WIND       PRES   REMARKS
TOPEKA         CLOUDY    63  57  81 CALM      29.98S
MANHATTAN      PTCLDY    58  54  86 S6        29.95F
EMPORIA        CLOUDY    59  56  89 S6        29.98S
CHANUTE        CLOUDY    61  58  90 S7        30.00F
WICHITA        MOCLDY    55  53  93 CALM      29.98R
OMAHA          CLOUDY    62  57  83 CALM      29.94S
LINCOLN        LGT RAIN  62  57  83 W7        29.96R
FALLS CITY     MOCLDY    63  57  81 SW10      29.94F
LAMONI         CLOUDY    63  55  75 S8        29.97S
DES MOINES     CLOUDY    63  54  72 W3        29.95F

$$




USA.gov is the U.S. government's official web portal to all federal, state and local government web resources and services.